Overview Statistics Trail Chart Weather Telemetry Raw packets
 

This is the latest recevied weather packets stored in our database for station/object KJ7HSW. If no packets are shown the sender has not sent any weather packets the latest 10 day(s).

<< 107 108 109 110 111 112 113 >>
Time Temp. Humidity Pressure Rain* Wind** Luminosity Snow
1787791654 22.22° C 64% 1014.7 hPa 0 mm - 56 W/m² -
1787791351 22.22° C 64% 1014.8 hPa 0 mm - 69 W/m² -
1787791045 22.22° C 64% 1014.8 hPa 0 mm - 70 W/m² -
1787790742 22.78° C 63% 1014.8 hPa 0 mm - 83 W/m² -
1787790435 23.33° C 61% 1014.9 hPa 0 mm - 122 W/m² -
1787790132 23.33° C 62% 1014.9 hPa 0 mm - 302 W/m² -
1787789827 23.89° C 60% 1014.9 hPa 0 mm - 300 W/m² -
1787789527 23.33° C 61% 1014.8 hPa 0 mm - 327 W/m² -
1787789225 23.33° C 61% 1014.9 hPa 0 mm - 298 W/m² -
1787788921 23.89° C 59% 1015 hPa 0 mm - 314 W/m² -
1787788618 23.33° C 61% 1015 hPa 0 mm - 334 W/m² -
1787788313 23.33° C 62% 1015.1 hPa 0 mm - 312 W/m² -
1787788008 23.33° C 62% 1015.2 hPa 0 mm - 314 W/m² -
1787787703 23.89° C 61% 1015 hPa 0 mm - 349 W/m² -
1787787401 24.44° C 59% 1015 hPa 0 mm - 415 W/m² -
1787787096 23.89° C 60% 1015.2 hPa 0 mm - 426 W/m² -
1787786795 23.89° C 61% 1015 hPa 0 mm - 410 W/m² -
1787786491 23.89° C 60% 1015.2 hPa 0 mm - 481 W/m² -
1787786186 23.89° C 62% 1015.1 hPa 0 mm - 491 W/m² -
1787785882 23.33° C 61% 1015.2 hPa 0 mm - 496 W/m² -
1787785577 23.89° C 59% 1015 hPa 0 mm - 491 W/m² -
1787785272 23.89° C 60% 1015.3 hPa 0 mm - 512 W/m² -
1787784971 23.89° C 60% 1015.3 hPa 0 mm - 527 W/m² -
1787784670 23.89° C 58% 1015.3 hPa 0 mm - 546 W/m² -
1787784369 23.89° C 60% 1015.2 hPa 0 mm - 539 W/m² -

* Rain latest hour (hover to see other rain measurements)
** Current wind speed in m/s (hover to see current wind gust speed)